Time,TemperatureF,DewpointF,PressureIn,WindDirection,WindDirectionDegrees,WindSpeedMPH,WindSpeedGustMPH,Humidity,HourlyPrecipIn,Conditions,Clouds,dailyrainin,SoftwareType,DateUTC
2013-07-02 00:01:00,71.4,48.9,30.11,SSW,203,12.0,12.0,96,0.00,,,0.01,meteohub,2013-07-02 04:01:00,
2013-07-02 00:06:00,72.0,50.0,30.11,NE,54,17.0,17.0,96,0.00,,,0.00,meteohub,2013-07-02 04:06:00,
2013-07-02 00:11:00,72.1,50.4,30.11,SSW,198,15.0,17.0,96,0.00,,,0.00,meteohub,2013-07-02 04:11:00,
2013-07-02 00:16:00,72.0,51.1,30.11,SSW,200,12.0,17.0,95,0.00,,,0.00,meteohub,2013-07-02 04:16:00,
2013-07-02 00:21:00,71.4,51.1,30.11,South,186,11.0,17.0,95,0.00,,,0.00,meteohub,2013-07-02 04:21:00,
2013-07-02 00:26:00,71.2,51.4,30.11,SSW,193,12.0,16.0,96,0.00,,,0.00,meteohub,2013-07-02 04:26:00,
2013-07-02 00:31:00,71.1,51.4,30.11,SSW,202,10.0,15.0,96,0.00,,,0.00,meteohub,2013-07-02 04:31:00,
2013-07-02 00:36:00,71.2,51.4,30.11,NE,54,14.0,16.0,97,0.00,,,0.00,meteohub,2013-07-02 04:36:00,
2013-07-02 00:41:00,71.6,51.4,30.11,SW,221,15.0,16.0,96,0.00,,,0.00,meteohub,2013-07-02 04:41:00,
2013-07-02 00:46:00,72.0,51.8,30.12,SSW,207,11.0,16.0,96,0.00,,,0.00,meteohub,2013-07-02 04:46:00,
2013-07-02 00:52:00,72.1,52.0,30.11,NE,54,12.0,16.0,96,0.00,,,0.00,meteohub,2013-07-02 04:52:00,
2013-07-02 00:57:00,71.8,52.0,30.11,SSW,194,9.0,18.0,96,0.00,,,0.00,meteohub,2013-07-02 04:57:00,
2013-07-02 01:02:00,71.2,51.4,30.11,South,190,10.0,18.0,96,0.00,,,0.00,meteohub,2013-07-02 05:02:00,
2013-07-02 01:07:00,71.2,51.4,30.11,SSW,198,7.0,18.0,96,0.00,,,0.00,meteohub,2013-07-02 05:07:00,
2013-07-02 01:12:00,71.1,51.1,30.11,SSW,193,10.0,18.0,96,0.00,,,0.00,meteohub,2013-07-02 05:12:00,
2013-07-02 01:17:00,70.9,51.4,30.12,South,190,13.0,18.0,97,0.00,,,0.00,meteohub,2013-07-02 05:17:00,
2013-07-02 01:22:00,70.9,51.4,30.12,SSW,197,12.0,14.0,97,0.00,,,0.00,meteohub,2013-07-02 05:22:00,
2013-07-02 01:27:00,70.9,51.4,30.12,SSW,200,10.0,14.0,97,0.00,,,0.00,meteohub,2013-07-02 05:27:00,
2013-07-02 01:32:00,70.7,51.4,30.12,SSW,201,8.0,14.0,97,0.00,,,0.00,meteohub,2013-07-02 05:32:00,
2013-07-02 01:37:00,70.5,51.1,30.12,South,191,7.0,14.0,97,0.00,,,0.00,meteohub,2013-07-02 05:37:00,
2013-07-02 01:42:00,70.5,50.9,30.12,SSW,196,9.0,12.0,97,0.00,,,0.00,meteohub,2013-07-02 05:42:00,
2013-07-02 01:47:00,70.5,50.9,30.12,SSW,196,8.0,11.0,97,0.00,,,0.00,meteohub,2013-07-02 05:47:00,
2013-07-02 01:52:00,70.5,50.4,30.12,SSW,197,6.0,11.0,97,0.00,,,0.00,meteohub,2013-07-02 05:52:00,
2013-07-02 01:57:00,70.9,50.0,30.12,SSW,196,6.0,11.0,97,0.00,,,0.00,meteohub,2013-07-02 05:57:00,
2013-07-02 02:02:00,71.1,50.0,30.12,NE,54,8.0,9.0,97,0.00,,,0.00,meteohub,2013-07-02 06:02:00,
2013-07-02 02:07:00,70.9,49.5,30.12,SSW,204,7.0,9.0,97,0.00,,,0.00,meteohub,2013-07-02 06:07:00,
2013-07-02 02:12:00,71.2,49.1,30.11,SSW,205,9.0,9.0,98,0.00,,,0.00,meteohub,2013-07-02 06:12:00,
2013-07-02 02:17:00,71.2,49.1,30.12,SSW,207,9.0,12.0,97,0.00,,,0.00,meteohub,2013-07-02 06:17:00,
2013-07-02 02:22:00,71.4,49.6,30.11,SSW,202,9.0,12.0,97,0.00,,,0.00,meteohub,2013-07-02 06:22:00,
2013-07-02 02:27:00,71.2,49.5,30.11,SSW,200,9.0,12.0,97,0.00,,,0.00,meteohub,2013-07-02 06:27:00,
2013-07-02 02:32:00,71.1,49.5,30.11,SSW,194,10.0,12.0,97,0.00,,,0.00,meteohub,2013-07-02 06:32:00,
2013-07-02 02:37:00,71.1,49.8,30.11,SSW,196,13.0,13.0,97,0.00,,,0.00,meteohub,2013-07-02 06:37:00,
2013-07-02 02:42:00,71.2,50.4,30.11,SSW,195,14.0,15.0,98,0.00,,,0.00,meteohub,2013-07-02 06:42:00,
2013-07-02 02:47:00,71.2,50.7,30.12,SSW,198,14.0,16.0,98,0.00,,,0.00,meteohub,2013-07-02 06:47:00,
2013-07-02 02:52:00,71.2,51.4,30.11,SSW,202,17.0,17.0,98,0.00,,,0.00,meteohub,2013-07-02 06:52:00,
2013-07-02 02:57:00,71.4,51.4,30.12,SSW,200,15.0,17.0,98,0.00,,,0.00,meteohub,2013-07-02 06:57:00,
2013-07-02 03:02:00,71.2,51.4,30.12,South,176,15.0,19.0,97,0.00,,,0.00,meteohub,2013-07-02 07:02:00,
2013-07-02 03:07:00,71.2,51.8,30.12,SSW,200,12.0,19.0,97,0.00,,,0.00,meteohub,2013-07-02 07:07:00,
2013-07-02 03:12:00,71.2,52.2,30.12,NE,54,12.0,17.0,97,0.00,,,0.00,meteohub,2013-07-02 07:12:00,
2013-07-02 03:17:00,71.6,52.2,30.12,SSW,204,14.0,17.0,98,0.00,,,0.00,meteohub,2013-07-02 07:17:00,
2013-07-02 03:22:00,71.8,52.2,30.11,SSW,200,14.0,19.0,97,0.00,,,0.00,meteohub,2013-07-02 07:22:00,
2013-07-02 03:27:00,71.4,52.5,30.12,SSW,209,12.0,19.0,97,0.00,,,0.00,meteohub,2013-07-02 07:27:00,
2013-07-02 03:32:00,71.4,52.2,30.12,SSW,207,11.0,19.0,97,0.00,,,0.00,meteohub,2013-07-02 07:32:00,
2013-07-02 03:37:00,71.4,52.2,30.12,SSW,209,11.0,18.0,97,0.00,,,0.00,meteohub,2013-07-02 07:37:00,
2013-07-02 03:42:00,71.2,52.2,30.12,NE,54,12.0,15.0,97,0.00,,,0.00,meteohub,2013-07-02 07:42:00,
2013-07-02 03:47:00,71.2,52.2,30.12,SSW,207,11.0,14.0,97,0.00,,,0.00,meteohub,2013-07-02 07:47:00,
2013-07-02 03:52:00,71.2,51.6,30.12,SSW,206,10.0,14.0,97,0.00,,,0.00,meteohub,2013-07-02 07:52:00,
2013-07-02 03:57:00,71.2,51.6,30.12,SSW,198,12.0,15.0,97,0.00,,,0.00,meteohub,2013-07-02 07:57:00,
2013-07-02 04:02:00,71.2,51.6,30.12,SSW,202,11.0,15.0,97,0.00,,,0.00,meteohub,2013-07-02 08:02:00,
2013-07-02 04:07:00,71.2,51.6,30.12,SSW,198,13.0,14.0,97,0.00,,,0.00,meteohub,2013-07-02 08:07:00,
2013-07-02 04:12:00,71.2,51.6,30.12,SSW,201,13.0,15.0,97,0.00,,,0.00,meteohub,2013-07-02 08:12:00,
2013-07-02 04:17:00,71.4,52.2,30.12,SSW,196,13.0,16.0,97,0.00,,,0.00,meteohub,2013-07-02 08:17:00,
2013-07-02 04:22:00,71.2,52.2,30.12,NE,54,12.0,17.0,97,0.00,,,0.00,meteohub,2013-07-02 08:22:00,
2013-07-02 04:27:00,71.2,52.2,30.12,SSW,192,12.0,17.0,97,0.00,,,0.00,meteohub,2013-07-02 08:27:00,
2013-07-02 04:32:00,71.1,52.2,30.12,South,190,13.0,17.0,97,0.00,,,0.00,meteohub,2013-07-02 08:32:00,
2013-07-02 04:37:00,71.1,52.2,30.12,South,189,13.0,15.0,97,0.00,,,0.00,meteohub,2013-07-02 08:37:00,
2013-07-02 04:42:00,70.9,52.2,30.12,South,188,12.0,15.0,97,0.00,,,0.00,meteohub,2013-07-02 08:42:00,
2013-07-02 04:47:00,70.9,52.2,30.12,SSW,193,13.0,16.0,97,0.00,,,0.00,meteohub,2013-07-02 08:47:00,
2013-07-02 04:52:00,71.2,52.5,30.12,SSW,196,15.0,16.0,98,0.00,,,0.00,meteohub,2013-07-02 08:52:00,
2013-07-02 04:57:00,71.2,52.5,30.12,SSW,203,13.0,19.0,98,0.00,,,0.00,meteohub,2013-07-02 08:57:00,
2013-07-02 05:02:00,71.2,52.5,30.12,SSW,198,10.0,19.0,97,0.00,,,0.00,meteohub,2013-07-02 09:02:00,
2013-07-02 05:07:00,71.1,52.5,30.13,SSW,195,12.0,19.0,97,0.00,,,0.00,meteohub,2013-07-02 09:07:00,
2013-07-02 05:12:00,71.1,52.5,30.13,SSW,199,12.0,16.0,97,0.00,,,0.00,meteohub,2013-07-02 09:12:00,
2013-07-02 05:17:00,71.1,52.2,30.13,SSW,200,11.0,15.0,97,0.00,,,0.00,meteohub,2013-07-02 09:17:00,
2013-07-02 05:22:00,71.2,52.2,30.13,SSW,205,15.0,15.0,98,0.00,,,0.00,meteohub,2013-07-02 09:22:00,
2013-07-02 05:27:00,71.2,52.2,30.13,SSW,195,13.0,17.0,97,0.00,,,0.00,meteohub,2013-07-02 09:27:00,
2013-07-02 05:32:00,71.1,52.2,30.13,SSW,198,11.0,17.0,97,0.00,,,0.00,meteohub,2013-07-02 09:32:00,
2013-07-02 05:37:00,71.2,52.2,30.13,SSW,199,13.0,17.0,97,0.00,,,0.00,meteohub,2013-07-02 09:37:00,
2013-07-02 05:42:00,71.2,51.6,30.14,NE,54,14.0,15.0,97,0.00,,,0.00,meteohub,2013-07-02 09:42:00,
2013-07-02 05:47:00,71.2,51.6,30.14,NE,54,13.0,14.0,97,0.00,,,0.00,meteohub,2013-07-02 09:47:00,
2013-07-02 05:52:00,71.2,52.2,30.14,SSW,200,10.0,15.0,97,0.00,,,0.00,meteohub,2013-07-02 09:52:00,
2013-07-02 05:57:00,71.2,51.6,30.14,SSW,207,11.0,16.0,97,0.00,,,0.00,meteohub,2013-07-02 09:57:00,
2013-07-02 06:02:00,71.2,51.6,30.14,SSW,206,11.0,16.0,97,0.00,,,0.00,meteohub,2013-07-02 10:02:00,
2013-07-02 06:07:00,71.2,51.6,30.14,SSW,211,10.0,15.0,96,0.00,,,0.00,meteohub,2013-07-02 10:07:00,
2013-07-02 06:12:00,71.4,51.3,30.15,SSW,208,11.0,13.0,96,0.00,,,0.00,meteohub,2013-07-02 10:12:00,
2013-07-02 06:17:00,71.6,51.3,30.15,SSW,202,10.0,13.0,96,0.00,,,0.00,meteohub,2013-07-02 10:17:00,
2013-07-02 06:22:00,71.4,52.5,30.15,SSW,196,10.0,13.0,96,0.00,,,0.00,meteohub,2013-07-02 10:22:00,
2013-07-02 06:27:00,71.2,54.9,30.14,SSW,199,9.0,13.0,96,0.00,,,0.00,meteohub,2013-07-02 10:27:00,
2013-07-02 06:32:00,71.1,57.6,30.14,SSW,200,7.0,12.0,96,0.00,,,0.00,meteohub,2013-07-02 10:32:00,
2013-07-02 06:38:00,71.1,59.5,30.14,SSW,204,6.0,11.0,96,0.00,,,0.00,meteohub,2013-07-02 10:38:00,
2013-07-02 06:43:00,71.1,60.6,30.14,SSW,192,6.0,11.0,96,0.00,,,0.00,meteohub,2013-07-02 10:43:00,
2013-07-02 06:48:00,71.1,61.5,30.14,South,179,6.0,10.0,96,0.00,,,0.00,meteohub,2013-07-02 10:48:00,
2013-07-02 06:53:00,70.9,62.2,30.14,South,191,9.0,10.0,96,0.00,,,0.00,meteohub,2013-07-02 10:53:00,
2013-07-02 06:58:00,70.9,63.1,30.14,South,188,8.0,11.0,96,0.00,,,0.00,meteohub,2013-07-02 10:58:00,
2013-07-02 07:03:00,70.7,63.7,30.14,South,175,9.0,11.0,96,0.00,,,0.00,meteohub,2013-07-02 11:03:00,
2013-07-02 07:08:00,70.7,64.2,30.14,South,180,7.0,10.0,97,0.00,,,0.00,meteohub,2013-07-02 11:08:00,
2013-07-02 07:13:00,70.7,64.6,30.14,South,182,8.0,12.0,97,0.00,,,0.00,meteohub,2013-07-02 11:13:00,
2013-07-02 07:18:00,70.9,64.9,30.14,SSW,196,8.0,13.0,97,0.00,,,0.00,meteohub,2013-07-02 11:18:00,
2013-07-02 07:23:00,71.1,65.1,30.14,SSW,207,9.0,13.0,97,0.00,,,0.00,meteohub,2013-07-02 11:23:00,
2013-07-02 07:28:00,71.2,65.7,30.15,SSW,208,10.0,13.0,97,0.00,,,0.00,meteohub,2013-07-02 11:28:00,
2013-07-02 07:33:00,71.4,65.7,30.15,SW,216,13.0,13.0,97,0.00,,,0.00,meteohub,2013-07-02 11:33:00,
2013-07-02 07:38:00,72.1,66.4,30.15,SW,215,13.0,15.0,97,0.00,,,0.00,meteohub,2013-07-02 11:38:00,
2013-07-02 07:43:00,72.5,66.7,30.15,SSW,208,15.0,17.0,96,0.00,,,0.00,meteohub,2013-07-02 11:43:00,
2013-07-02 07:48:00,72.3,66.2,30.15,NE,54,16.0,20.0,96,0.00,,,0.00,meteohub,2013-07-02 11:48:00,
2013-07-02 07:53:00,72.3,65.5,30.14,SW,215,12.0,20.0,96,0.00,,,0.00,meteohub,2013-07-02 11:53:00,
2013-07-02 07:58:00,72.7,64.9,30.15,SSW,205,17.0,21.0,95,0.00,,,0.00,meteohub,2013-07-02 11:58:00,
2013-07-02 08:03:00,72.9,64.2,30.15,SSW,207,13.0,21.0,96,0.00,,,0.00,meteohub,2013-07-02 12:03:00,
2013-07-02 08:08:00,73.2,63.7,30.15,SSW,213,13.0,21.0,96,0.00,,,0.00,meteohub,2013-07-02 12:08:00,
2013-07-02 08:13:00,73.2,62.8,30.15,NE,54,11.0,20.0,95,0.00,,,0.00,meteohub,2013-07-02 12:13:00,
2013-07-02 08:18:00,73.0,62.1,30.16,SSW,207,13.0,20.0,95,0.00,,,0.00,meteohub,2013-07-02 12:18:00,
2013-07-02 08:23:00,72.9,61.9,30.15,SSW,209,14.0,19.0,95,0.00,,,0.00,meteohub,2013-07-02 12:23:00,
2013-07-02 08:28:00,72.9,62.8,30.16,SSW,201,12.0,17.0,95,0.00,,,0.00,meteohub,2013-07-02 12:28:00,
2013-07-02 08:33:00,72.3,63.7,30.16,SSW,199,12.0,17.0,94,0.00,,,0.00,meteohub,2013-07-02 12:33:00,
2013-07-02 08:38:00,72.3,64.2,30.16,SSW,201,12.0,17.0,95,0.00,,,0.00,meteohub,2013-07-02 12:38:00,
2013-07-02 08:43:00,72.1,64.6,30.16,South,183,9.0,16.0,95,0.00,,,0.00,meteohub,2013-07-02 12:43:00,
2013-07-02 08:48:00,71.8,65.3,30.16,SSW,194,10.0,16.0,95,0.00,,,0.00,meteohub,2013-07-02 12:48:00,
2013-07-02 08:53:00,71.4,64.8,30.16,South,188,12.0,16.0,96,0.00,,,0.00,meteohub,2013-07-02 12:53:00,
2013-07-02 08:58:00,71.4,64.4,30.16,SSW,197,11.0,14.0,96,0.00,,,0.00,meteohub,2013-07-02 12:58:00,
2013-07-02 09:03:00,71.2,63.9,30.16,South,190,9.0,13.0,96,0.00,,,0.00,meteohub,2013-07-02 13:03:00,
2013-07-02 09:08:00,71.2,63.5,30.16,SSW,207,12.0,13.0,97,0.00,,,0.00,meteohub,2013-07-02 13:08:00,
2013-07-02 09:13:00,72.1,63.5,30.16,NE,54,13.0,14.0,97,0.00,,,0.00,meteohub,2013-07-02 13:13:00,
2013-07-02 09:18:00,73.4,64.0,30.16,SSW,203,15.0,15.0,97,0.00,,,0.00,meteohub,2013-07-02 13:18:00,
2013-07-02 09:23:00,73.8,64.9,30.16,NE,54,15.0,21.0,96,0.00,,,0.00,meteohub,2013-07-02 13:23:00,
2013-07-02 09:28:00,73.8,64.2,30.16,SSW,208,24.0,24.0,94,0.00,,,0.00,meteohub,2013-07-02 13:28:00,
2013-07-02 09:34:00,73.8,64.6,30.16,SW,214,16.0,21.0,94,0.00,,,0.00,meteohub,2013-07-02 13:34:00,
2013-07-02 09:39:00,73.4,64.2,30.16,SSW,209,15.0,24.0,94,0.00,,,0.00,meteohub,2013-07-02 13:39:00,
2013-07-02 09:43:00,73.4,64.2,30.16,NE,54,14.0,24.0,95,0.00,,,0.00,meteohub,2013-07-02 13:43:00,
2013-07-02 09:49:00,73.6,64.2,30.16,SSW,210,16.0,20.0,95,0.00,,,0.00,meteohub,2013-07-02 13:49:00,
2013-07-02 09:54:00,73.6,64.2,30.16,SW,222,14.0,19.0,94,0.00,,,0.00,meteohub,2013-07-02 13:54:00,
2013-07-02 09:59:00,73.8,64.8,30.16,SSW,211,9.0,19.0,95,0.00,,,0.00,meteohub,2013-07-02 13:59:00,
2013-07-02 10:04:00,73.8,64.8,30.16,SSW,205,10.0,19.0,95,0.00,,,0.00,meteohub,2013-07-02 14:04:00,
2013-07-02 10:09:00,73.6,64.0,30.16,SW,215,13.0,17.0,95,0.00,,,0.00,meteohub,2013-07-02 14:09:00,
2013-07-02 10:14:00,73.6,63.1,30.17,SSW,203,10.0,17.0,94,0.00,,,0.00,meteohub,2013-07-02 14:14:00,
2013-07-02 10:19:00,73.6,62.1,30.17,NE,54,8.0,14.0,95,0.00,,,0.00,meteohub,2013-07-02 14:19:00,
2013-07-02 10:24:00,74.1,61.5,30.17,NE,54,11.0,16.0,95,0.00,,,0.00,meteohub,2013-07-02 14:24:00,
2013-07-02 10:29:00,74.1,61.0,30.17,SW,232,14.0,16.0,94,0.00,,,0.00,meteohub,2013-07-02 14:29:00,
2013-07-02 10:34:00,74.7,60.1,30.16,SSW,204,16.0,16.0,94,0.00,,,0.00,meteohub,2013-07-02 14:34:00,
2013-07-02 10:39:00,74.5,59.7,30.17,NE,54,13.0,16.0,93,0.00,,,0.00,meteohub,2013-07-02 14:39:00,
2013-07-02 10:44:00,74.5,59.5,30.17,SSW,211,12.0,18.0,93,0.00,,,0.00,meteohub,2013-07-02 14:44:00,
2013-07-02 10:49:00,74.5,59.0,30.17,NE,54,10.0,18.0,93,0.00,,,0.00,meteohub,2013-07-02 14:49:00,
2013-07-02 10:54:00,74.3,58.5,30.17,WSW,247,10.0,17.0,93,0.00,,,0.00,meteohub,2013-07-02 14:54:00,
2013-07-02 10:59:00,74.7,60.3,30.17,SSW,204,13.0,17.0,93,0.00,,,0.00,meteohub,2013-07-02 14:59:00,
2013-07-02 11:04:00,74.7,61.5,30.17,SSW,213,16.0,17.0,92,0.00,,,0.00,meteohub,2013-07-02 15:04:00,
2013-07-02 11:09:00,74.5,62.8,30.17,SSW,211,11.0,18.0,93,0.00,,,0.00,meteohub,2013-07-02 15:09:00,
2013-07-02 11:14:00,74.5,63.9,30.17,SSW,211,13.0,18.0,93,0.00,,,0.00,meteohub,2013-07-02 15:14:00,
2013-07-02 11:19:00,74.7,63.1,30.18,NE,54,14.0,18.0,93,0.00,,,0.00,meteohub,2013-07-02 15:19:00,
2013-07-02 11:24:00,74.7,62.4,30.18,SW,219,17.0,18.0,93,0.00,,,0.00,meteohub,2013-07-02 15:24:00,
2013-07-02 11:29:00,74.5,61.5,30.18,SSW,213,13.0,20.0,93,0.00,,,0.00,meteohub,2013-07-02 15:29:00,
2013-07-02 11:34:00,74.7,61.2,30.18,SW,217,13.0,20.0,93,0.00,,,0.00,meteohub,2013-07-02 15:34:00,
2013-07-02 11:39:00,74.7,60.1,30.18,NE,54,11.0,20.0,93,0.00,,,0.00,meteohub,2013-07-02 15:39:00,
2013-07-02 11:44:00,74.5,59.7,30.17,SSW,213,18.0,20.0,94,0.00,,,0.00,meteohub,2013-07-02 15:44:00,
2013-07-02 11:49:00,74.5,59.2,30.18,NE,54,11.0,19.0,94,0.00,,,0.00,meteohub,2013-07-02 15:49:00,
2013-07-02 11:54:00,74.7,59.0,30.18,SW,221,12.0,19.0,94,0.00,,,0.00,meteohub,2013-07-02 15:54:00,
2013-07-02 11:59:00,74.7,59.5,30.18,SW,215,16.0,19.0,93,0.00,,,0.00,meteohub,2013-07-02 15:59:00,
2013-07-02 12:04:00,74.8,60.8,30.18,NE,54,8.0,19.0,93,0.00,,,0.00,meteohub,2013-07-02 16:04:00,
2013-07-02 12:09:00,75.0,62.4,30.18,SW,230,12.0,18.0,93,0.00,,,0.00,meteohub,2013-07-02 16:09:00,
2013-07-02 12:14:00,75.4,63.5,30.18,SSW,208,11.0,18.0,92,0.00,,,0.00,meteohub,2013-07-02 16:14:00,
2013-07-02 12:19:00,75.6,64.0,30.18,WSW,238,11.0,21.0,93,0.00,,,0.00,meteohub,2013-07-02 16:19:00,
2013-07-02 12:24:00,75.7,62.8,30.18,SSW,211,14.0,21.0,92,0.00,,,0.00,meteohub,2013-07-02 16:24:00,
2013-07-02 12:29:00,75.9,61.9,30.18,SSW,204,12.0,21.0,92,0.00,,,0.00,meteohub,2013-07-02 16:29:00,
2013-07-02 12:34:00,76.3,61.5,30.18,SW,223,13.0,18.0,91,0.00,,,0.00,meteohub,2013-07-02 16:34:00,
2013-07-02 12:39:00,76.5,61.2,30.18,SW,215,13.0,19.0,91,0.00,,,0.00,meteohub,2013-07-02 16:39:00,
2013-07-02 12:44:00,76.5,60.3,30.18,NE,54,14.0,19.0,91,0.00,,,0.00,meteohub,2013-07-02 16:44:00,
2013-07-02 12:49:00,76.3,60.3,30.19,SW,216,18.0,20.0,90,0.00,,,0.00,meteohub,2013-07-02 16:49:00,
2013-07-02 12:54:00,76.1,59.7,30.18,NE,54,12.0,20.0,90,0.00,,,0.00,meteohub,2013-07-02 16:54:00,
2013-07-02 12:55:00,76.1,59.7,30.18,NE,54,11.0,20.0,90,0.00,,,0.00,meteohub,2013-07-02 16:55:00,
2013-07-02 13:00:00,75.9,59.4,30.18,SSW,212,12.0,19.0,91,0.00,,,0.00,meteohub,2013-07-02 17:00:00,
2013-07-02 13:05:00,75.6,58.8,30.18,SW,218,8.0,19.0,91,0.00,,,0.00,meteohub,2013-07-02 17:05:00,
2013-07-02 13:10:00,75.6,58.5,30.18,SSW,211,12.0,17.0,92,0.00,,,0.00,meteohub,2013-07-02 17:10:00,
2013-07-02 13:15:00,75.6,58.1,30.17,SSW,200,10.0,15.0,91,0.00,,,0.00,meteohub,2013-07-02 17:15:00,
2013-07-02 13:20:00,74.8,57.9,30.17,SSW,210,11.0,15.0,91,0.00,,,0.00,meteohub,2013-07-02 17:20:00,
2013-07-02 13:25:00,74.3,57.9,30.17,SW,228,10.0,15.0,92,0.00,,,0.00,meteohub,2013-07-02 17:25:00,
2013-07-02 13:30:00,74.7,57.9,30.17,SSW,209,9.0,14.0,93,0.00,,,0.00,meteohub,2013-07-02 17:30:00,
2013-07-02 13:35:00,75.0,59.7,30.17,NE,54,10.0,14.0,93,0.00,,,0.00,meteohub,2013-07-02 17:35:00,
2013-07-02 13:40:00,75.6,61.9,30.17,SSW,209,11.0,14.0,93,0.00,,,0.00,meteohub,2013-07-02 17:40:00,
2013-07-02 13:45:00,75.4,63.1,30.17,NE,54,11.0,14.0,92,0.00,,,0.00,meteohub,2013-07-02 17:45:00,
2013-07-02 13:50:00,75.2,63.3,30.17,SSW,210,9.0,15.0,92,0.00,,,0.00,meteohub,2013-07-02 17:50:00,
2013-07-02 13:55:00,75.0,62.4,30.17,SSW,213,6.0,15.0,92,0.00,,,0.00,meteohub,2013-07-02 17:55:00,
2013-07-02 14:00:00,74.5,61.5,30.17,SSW,202,10.0,15.0,92,0.00,,,0.00,meteohub,2013-07-02 18:00:00,
2013-07-02 14:05:00,74.5,60.6,30.17,SSW,205,9.0,13.0,94,0.00,,,0.00,meteohub,2013-07-02 18:05:00,
2013-07-02 14:10:00,74.7,59.7,30.17,SSW,209,8.0,14.0,94,0.00,,,0.00,meteohub,2013-07-02 18:10:00,
2013-07-02 14:15:00,74.7,59.0,30.17,SW,219,12.0,14.0,94,0.00,,,0.00,meteohub,2013-07-02 18:15:00,
2013-07-02 14:20:00,74.5,58.3,30.16,SSW,209,12.0,14.0,93,0.00,,,0.00,meteohub,2013-07-02 18:20:00,
2013-07-02 14:25:00,74.7,58.3,30.16,SW,214,10.0,14.0,93,0.00,,,0.00,meteohub,2013-07-02 18:25:00,
2013-07-02 14:30:00,75.4,58.3,30.16,SW,215,11.0,13.0,93,0.00,,,0.00,meteohub,2013-07-02 18:30:00,
2013-07-02 14:35:00,75.9,58.3,30.16,SW,216,12.0,15.0,92,0.00,,,0.00,meteohub,2013-07-02 18:35:00,
2013-07-02 14:40:00,76.3,58.3,30.16,SW,220,11.0,15.0,91,0.00,,,0.00,meteohub,2013-07-02 18:40:00,
2013-07-02 14:45:00,76.1,58.8,30.16,SSW,209,17.0,17.0,90,0.00,,,0.00,meteohub,2013-07-02 18:45:00,
2013-07-02 14:50:00,75.6,58.8,30.16,SSW,207,14.0,17.0,91,0.00,,,0.00,meteohub,2013-07-02 18:50:00,
2013-07-02 14:55:00,75.4,58.1,30.16,SSW,206,11.0,17.0,91,0.00,,,0.00,meteohub,2013-07-02 18:55:00,
2013-07-02 15:00:00,75.6,57.7,30.16,SW,217,14.0,17.0,91,0.00,,,0.00,meteohub,2013-07-02 19:00:00,
2013-07-02 15:05:00,76.3,58.5,30.16,SSW,206,19.0,19.0,91,0.00,,,0.00,meteohub,2013-07-02 19:05:00,
2013-07-02 15:10:00,76.6,60.8,30.16,SW,227,12.0,19.0,89,0.00,,,0.00,meteohub,2013-07-02 19:10:00,
2013-07-02 15:15:00,76.8,61.5,30.16,SSW,205,12.0,19.0,89,0.00,,,0.00,meteohub,2013-07-02 19:15:00,
2013-07-02 15:20:00,75.6,60.6,30.16,SSW,213,8.0,19.0,89,0.00,,,0.00,meteohub,2013-07-02 19:20:00,
2013-07-02 15:25:00,74.5,60.1,30.15,SSW,207,13.0,17.0,91,0.00,,,0.00,meteohub,2013-07-02 19:25:00,
2013-07-02 15:30:00,74.1,59.9,30.15,SSW,195,11.0,17.0,92,0.00,,,0.00,meteohub,2013-07-02 19:30:00,
2013-07-02 15:35:00,74.5,59.4,30.15,SSW,204,11.0,17.0,93,0.00,,,0.00,meteohub,2013-07-02 19:35:00,
2013-07-02 15:40:00,74.1,58.8,30.15,SSW,202,14.0,15.0,92,0.00,,,0.00,meteohub,2013-07-02 19:40:00,
2013-07-02 15:45:00,73.8,58.8,30.15,SSW,202,10.0,17.0,92,0.00,,,0.00,meteohub,2013-07-02 19:45:00,
2013-07-02 15:50:00,73.6,58.3,30.15,SSW,198,12.0,17.0,93,0.00,,,0.00,meteohub,2013-07-02 19:50:00,
2013-07-02 15:55:00,73.8,57.9,30.15,NE,54,12.0,17.0,94,0.00,,,0.00,meteohub,2013-07-02 19:55:00,
2013-07-02 16:00:00,73.9,58.1,30.15,SSW,206,11.0,15.0,93,0.00,,,0.00,meteohub,2013-07-02 20:00:00,
2013-07-02 16:06:00,74.5,57.7,30.15,SSW,208,9.0,15.0,93,0.00,,,0.00,meteohub,2013-07-02 20:06:00,
2013-07-02 16:11:00,74.7,57.6,30.15,SSW,204,10.0,15.0,92,0.00,,,0.00,meteohub,2013-07-02 20:11:00,
2013-07-02 16:16:00,74.7,57.6,30.15,SSW,204,13.0,14.0,91,0.00,,,0.00,meteohub,2013-07-02 20:16:00,
2013-07-02 16:21:00,74.5,57.6,30.15,SSW,197,8.0,14.0,92,0.00,,,0.00,meteohub,2013-07-02 20:21:00,
2013-07-02 16:26:00,74.3,56.7,30.15,SSW,196,7.0,14.0,92,0.00,,,0.00,meteohub,2013-07-02 20:26:00,
2013-07-02 16:31:00,74.5,56.7,30.15,South,188,9.0,14.0,91,0.00,,,0.00,meteohub,2013-07-02 20:31:00,
2013-07-02 16:36:00,74.1,56.7,30.15,SSW,192,9.0,12.0,92,0.00,,,0.00,meteohub,2013-07-02 20:36:00,
2013-07-02 16:41:00,73.9,57.2,30.15,SSW,193,7.0,12.0,91,0.00,,,0.00,meteohub,2013-07-02 20:41:00,
2013-07-02 16:46:00,73.9,59.5,30.15,SSW,192,8.0,11.0,91,0.00,,,0.00,meteohub,2013-07-02 20:46:00,
2013-07-02 16:51:00,73.9,60.8,30.15,SSW,196,9.0,9.0,92,0.00,,,0.00,meteohub,2013-07-02 20:51:00,
2013-07-02 16:56:00,74.1,60.3,30.15,SSW,196,11.0,12.0,92,0.00,,,0.00,meteohub,2013-07-02 20:56:00,
2013-07-02 17:01:00,74.7,59.9,30.15,SW,214,12.0,14.0,91,0.00,,,0.00,meteohub,2013-07-02 21:01:00,
2013-07-02 17:06:00,75.6,59.5,30.15,SW,222,9.0,17.0,91,0.00,,,0.00,meteohub,2013-07-02 21:06:00,
2013-07-02 17:11:00,76.5,59.2,30.15,SW,216,13.0,17.0,89,0.00,,,0.00,meteohub,2013-07-02 21:11:00,
2013-07-02 17:16:00,76.3,59.2,30.15,SSW,209,15.0,17.0,87,0.00,,,0.00,meteohub,2013-07-02 21:16:00,
2013-07-02 17:21:00,75.6,58.8,30.15,SSW,207,14.0,17.0,89,0.00,,,0.00,meteohub,2013-07-02 21:21:00,
2013-07-02 17:26:00,75.0,58.8,30.15,SSW,209,16.0,19.0,89,0.00,,,0.00,meteohub,2013-07-02 21:26:00,
2013-07-02 17:31:00,75.0,58.8,30.15,SSW,211,16.0,20.0,90,0.00,,,0.00,meteohub,2013-07-02 21:31:00,
2013-07-02 17:36:00,74.8,58.8,30.15,SSW,205,16.0,20.0,90,0.00,,,0.00,meteohub,2013-07-02 21:36:00,
2013-07-02 17:41:00,74.7,58.8,30.15,SSW,199,13.0,20.0,90,0.00,,,0.00,meteohub,2013-07-02 21:41:00,
2013-07-02 17:46:00,74.8,58.8,30.15,SSW,209,14.0,19.0,90,0.00,,,0.00,meteohub,2013-07-02 21:46:00,
2013-07-02 17:51:00,74.8,58.8,30.15,SSW,209,15.0,19.0,90,0.00,,,0.00,meteohub,2013-07-02 21:51:00,
2013-07-02 17:56:00,74.8,58.8,30.16,SW,223,16.0,19.0,90,0.00,,,0.00,meteohub,2013-07-02 21:56:00,
2013-07-02 18:01:00,75.0,58.8,30.16,NE,54,10.0,20.0,90,0.00,,,0.00,meteohub,2013-07-02 22:01:00,
2013-07-02 18:06:00,75.2,58.8,30.16,SW,225,16.0,20.0,90,0.00,,,0.00,meteohub,2013-07-02 22:06:00,
2013-07-02 18:11:00,75.4,58.6,30.16,NE,54,14.0,20.0,90,0.00,,,0.00,meteohub,2013-07-02 22:11:00,
2013-07-02 18:16:00,75.0,58.1,30.17,SSW,205,17.0,19.0,90,0.00,,,0.00,meteohub,2013-07-02 22:16:00,
2013-07-02 18:21:00,74.7,58.6,30.17,SW,217,16.0,19.0,90,0.00,,,0.00,meteohub,2013-07-02 22:21:00,
2013-07-02 18:26:00,74.3,58.8,30.17,SSW,213,15.0,22.0,91,0.00,,,0.00,meteohub,2013-07-02 22:26:00,
2013-07-02 18:31:00,74.1,58.5,30.17,NE,54,16.0,22.0,92,0.00,,,0.00,meteohub,2013-07-02 22:31:00,
2013-07-02 18:36:00,73.9,58.5,30.17,SSW,198,18.0,22.0,91,0.00,,,0.00,meteohub,2013-07-02 22:36:00,
2013-07-02 18:41:00,73.8,58.5,30.17,SSW,213,16.0,22.0,92,0.00,,,0.00,meteohub,2013-07-02 22:41:00,
2013-07-02 18:46:00,73.6,58.1,30.18,SSW,207,12.0,23.0,92,0.00,,,0.00,meteohub,2013-07-02 22:46:00,
2013-07-02 18:51:00,73.6,58.1,30.18,SSW,202,19.0,23.0,93,0.00,,,0.00,meteohub,2013-07-02 22:51:00,
2013-07-02 18:56:00,73.6,58.1,30.17,SW,215,15.0,23.0,93,0.00,,,0.00,meteohub,2013-07-02 22:56:00,
2013-07-02 19:01:00,73.6,58.1,30.18,SW,214,16.0,22.0,93,0.00,,,0.00,meteohub,2013-07-02 23:01:00,
2013-07-02 19:06:00,73.6,59.9,30.18,NE,54,12.0,22.0,93,0.00,,,0.00,meteohub,2013-07-02 23:06:00,
2013-07-02 19:11:00,73.6,62.1,30.17,NE,54,15.0,21.0,93,0.00,,,0.00,meteohub,2013-07-02 23:11:00,
2013-07-02 19:16:00,73.0,63.5,30.17,SSW,209,18.0,21.0,93,0.00,,,0.00,meteohub,2013-07-02 23:16:00,
2013-07-02 19:21:00,73.0,64.0,30.18,SW,214,13.0,21.0,93,0.00,,,0.00,meteohub,2013-07-02 23:21:00,
2013-07-02 19:26:00,72.9,63.5,30.18,SSW,210,15.0,21.0,94,0.00,,,0.00,meteohub,2013-07-02 23:26:00,
2013-07-02 19:29:00,73.0,62.6,30.18,SSW,208,14.0,21.0,94,0.00,,,0.00,meteohub,2013-07-02 23:29:00,
2013-07-02 19:34:00,72.9,61.9,30.18,SSW,210,18.0,22.0,93,0.00,,,0.00,meteohub,2013-07-02 23:34:00,
2013-07-02 19:39:00,72.7,61.0,30.18,NE,54,17.0,22.0,94,0.00,,,0.00,meteohub,2013-07-02 23:39:00,
2013-07-02 19:44:00,72.7,60.6,30.18,SSW,204,15.0,22.0,94,0.00,,,0.00,meteohub,2013-07-02 23:44:00,
2013-07-02 19:49:00,72.7,60.1,30.18,SSW,210,13.0,22.0,94,0.00,,,0.00,meteohub,2013-07-02 23:49:00,
2013-07-02 19:54:00,72.7,59.9,30.18,SSW,207,15.0,22.0,94,0.00,,,0.00,meteohub,2013-07-02 23:54:00,
2013-07-02 19:59:00,72.7,59.5,30.18,SW,218,13.0,22.0,94,0.00,,,0.00,meteohub,2013-07-02 23:59:00,
2013-07-02 20:02:00,72.7,59.4,30.18,NE,54,17.0,21.0,94,0.00,,,0.00,meteohub,2013-07-03 00:02:00,
2013-07-02 20:06:00,72.9,59.4,30.18,SSW,212,16.0,20.0,94,0.00,,,0.00,meteohub,2013-07-03 00:06:00,
2013-07-02 20:11:00,73.0,58.6,30.18,SW,222,19.0,20.0,94,0.00,,,0.00,meteohub,2013-07-03 00:11:00,
2013-07-02 20:16:00,73.0,58.6,30.18,SW,218,13.0,21.0,94,0.00,,,0.00,meteohub,2013-07-03 00:16:00,
2013-07-02 20:21:00,73.0,58.6,30.18,SSW,209,16.0,21.0,94,0.00,,,0.00,meteohub,2013-07-03 00:21:00,
2013-07-02 20:23:00,73.0,59.0,30.18,NE,54,18.0,21.0,94,0.00,,,0.00,meteohub,2013-07-03 00:23:00,
2013-07-02 20:24:00,73.0,59.0,30.18,SSW,201,16.0,21.0,94,0.00,,,0.00,meteohub,2013-07-03 00:24:00,
2013-07-02 20:28:00,73.0,58.8,30.18,SW,215,17.0,22.0,94,0.00,,,0.00,meteohub,2013-07-03 00:28:00,
2013-07-02 20:33:00,73.0,59.4,30.18,SSW,204,11.0,23.0,94,0.00,,,0.00,meteohub,2013-07-03 00:33:00,
2013-07-02 20:38:00,73.0,61.2,30.18,SW,219,14.0,23.0,94,0.00,,,0.00,meteohub,2013-07-03 00:38:00,
2013-07-02 20:43:00,73.0,63.0,30.18,SW,223,15.0,20.0,94,0.00,,,0.00,meteohub,2013-07-03 00:43:00,
2013-07-02 20:48:00,73.0,63.9,30.18,SSW,213,16.0,19.0,94,0.00,,,0.00,meteohub,2013-07-03 00:48:00,
2013-07-02 20:53:00,72.9,63.9,30.18,SSW,213,15.0,19.0,94,0.00,,,0.00,meteohub,2013-07-03 00:53:00,
2013-07-02 20:58:00,72.9,62.8,30.18,SSW,205,13.0,23.0,94,0.00,,,0.00,meteohub,2013-07-03 00:58:00,
2013-07-02 21:00:00,72.9,62.2,30.18,NE,54,18.0,23.0,94,0.00,,,0.00,meteohub,2013-07-03 01:00:00,
2013-07-02 21:03:00,72.9,61.9,30.19,SSW,212,15.0,23.0,94,0.00,,,0.00,meteohub,2013-07-03 01:03:00,
2013-07-02 21:08:00,73.0,61.2,30.19,NE,54,17.0,23.0,94,0.00,,,0.00,meteohub,2013-07-03 01:08:00,
2013-07-02 21:09:00,73.0,61.2,30.19,SSW,213,15.0,23.0,94,0.00,,,0.00,meteohub,2013-07-03 01:09:00,
2013-07-02 21:14:00,73.0,60.8,30.19,SW,218,15.0,21.0,94,0.00,,,0.00,meteohub,2013-07-03 01:14:00,
2013-07-02 21:19:00,73.0,60.3,30.19,SSW,210,14.0,20.0,94,0.00,,,0.00,meteohub,2013-07-03 01:19:00,
2013-07-02 21:24:00,73.0,59.9,30.19,SW,224,16.0,20.0,94,0.00,,,0.00,meteohub,2013-07-03 01:24:00,
2013-07-02 21:26:00,73.0,59.7,30.19,SSW,209,15.0,20.0,94,0.00,,,0.00,meteohub,2013-07-03 01:26:00,
2013-07-02 21:32:00,73.2,59.4,30.19,SW,223,14.0,19.0,94,0.00,,,0.00,meteohub,2013-07-03 01:32:00,
2013-07-02 21:37:00,73.2,61.2,30.20,NE,54,13.0,19.0,94,0.00,,,0.00,meteohub,2013-07-03 01:37:00,
2013-07-02 21:42:00,73.4,62.8,30.20,SW,225,13.0,18.0,94,0.00,,,0.00,meteohub,2013-07-03 01:42:00,
2013-07-02 21:47:00,73.4,63.9,30.20,SW,215,14.0,19.0,94,0.00,,,0.00,meteohub,2013-07-03 01:47:00,
2013-07-02 21:50:00,73.4,64.8,30.20,SW,236,15.0,19.0,94,0.00,,,0.00,meteohub,2013-07-03 01:50:00,
2013-07-02 21:52:00,73.4,64.8,30.20,SSW,205,12.0,20.0,94,0.00,,,0.00,meteohub,2013-07-03 01:52:00,
2013-07-02 21:57:00,73.6,63.1,30.20,SW,235,19.0,21.0,94,0.00,,,0.00,meteohub,2013-07-03 01:57:00,
2013-07-02 22:02:00,73.6,62.4,30.20,SW,222,15.0,23.0,94,0.00,,,0.00,meteohub,2013-07-03 02:02:00,
2013-07-02 22:07:00,73.8,62.1,30.20,SW,216,19.0,23.0,94,0.00,,,0.00,meteohub,2013-07-03 02:07:00,
2013-07-02 22:12:00,73.8,61.5,30.19,SSW,211,17.0,23.0,94,0.00,,,0.00,meteohub,2013-07-03 02:12:00,
2013-07-02 22:17:00,73.9,61.5,30.19,SSW,212,18.0,22.0,93,0.00,,,0.00,meteohub,2013-07-03 02:17:00,
2013-07-02 22:22:00,73.8,61.2,30.20,SSW,213,18.0,25.0,94,0.00,,,0.00,meteohub,2013-07-03 02:22:00,
2013-07-02 22:27:00,73.9,60.6,30.19,SW,223,12.0,25.0,94,0.00,,,0.00,meteohub,2013-07-03 02:27:00,
2013-07-02 22:32:00,73.9,60.6,30.20,SW,217,14.0,22.0,93,0.00,,,0.00,meteohub,2013-07-03 02:32:00,
2013-07-02 22:37:00,73.9,60.4,30.19,SSW,209,14.0,22.0,93,0.00,,,0.00,meteohub,2013-07-03 02:37:00,
2013-07-02 22:42:00,73.9,60.4,30.19,SW,236,18.0,22.0,93,0.00,,,0.00,meteohub,2013-07-03 02:42:00,
2013-07-02 22:47:00,73.9,59.7,30.20,NE,54,16.0,22.0,93,0.00,,,0.00,meteohub,2013-07-03 02:47:00,
2013-07-02 22:48:00,73.8,59.7,30.20,NE,54,13.0,22.0,94,0.00,,,0.00,meteohub,2013-07-03 02:48:00,
2013-07-02 22:53:00,73.9,59.7,30.20,SSW,211,12.0,21.0,93,0.00,,,0.00,meteohub,2013-07-03 02:53:00,
2013-07-02 22:58:00,73.8,61.3,30.20,SW,225,10.0,21.0,93,0.00,,,0.00,meteohub,2013-07-03 02:58:00,
2013-07-02 23:02:00,73.9,62.4,30.20,SW,225,11.0,19.0,93,0.00,,,0.00,meteohub,2013-07-03 03:02:00,
2013-07-02 23:07:00,73.9,63.5,30.20,SW,216,11.0,18.0,93,0.00,,,0.00,meteohub,2013-07-03 03:07:00,
2013-07-02 23:12:00,73.9,64.6,30.20,SW,226,6.0,18.0,92,0.00,,,0.00,meteohub,2013-07-03 03:12:00,
2013-07-02 23:17:00,74.1,63.5,30.20,SW,230,13.0,18.0,92,0.00,,,0.00,meteohub,2013-07-03 03:17:00,
2013-07-02 23:20:00,74.1,62.8,30.20,SW,229,13.0,18.0,92,0.00,,,0.00,meteohub,2013-07-03 03:20:00,
2013-07-02 23:25:00,74.3,62.1,30.20,SSW,211,8.0,17.0,92,0.00,,,0.00,meteohub,2013-07-03 03:25:00,
2013-07-02 23:30:00,74.3,60.6,30.20,SW,234,8.0,16.0,92,0.00,,,0.00,meteohub,2013-07-03 03:30:00,
2013-07-02 23:35:00,74.1,61.2,30.20,SW,221,4.0,13.0,91,0.00,,,0.00,meteohub,2013-07-03 03:35:00,
2013-07-02 23:40:00,74.1,62.1,30.20,SW,223,5.0,11.0,92,0.00,,,0.00,meteohub,2013-07-03 03:40:00,
2013-07-02 23:45:00,74.1,63.1,30.20,SW,220,6.0,10.0,91,0.00,,,0.00,meteohub,2013-07-03 03:45:00,
2013-07-02 23:49:00,73.9,63.9,30.20,NE,54,6.0,10.0,91,0.00,,,0.00,meteohub,2013-07-03 03:49:00,
2013-07-02 23:54:00,73.2,63.9,30.20,SW,214,7.0,9.0,91,0.00,,,0.00,meteohub,2013-07-03 03:54:00,
2013-07-02 23:59:00,72.9,64.4,30.20,SSW,213,8.0,9.0,93,0.00,,,0.00,meteohub,2013-07-03 03:59:00,